STARLINK-30265, 57646

Orbit data source: Space-Track

STARLINK-30265, 57646 is a payload satellite owned by SpaceX/Seattle (US) in LEO that was launched on Thu, 17 Aug 2023 UTC via an FALCON 9 launch vehicle from the Air Force Eastern Test Range (AFETR). Payload-class satellites include a variety of spacecraft equipped with specific instruments for various scientific and technological missions. These include communications satellites like Starlink; space stations such as the ISS; scientific satellites like the Hubble; Earth observation satellites from companies like Planet Labs, Umbra, and HawkEye 360; GPS; miniature CubeSats for education and research; and military/defense satellites.

Loading next visibility...
Identifier
57646, 2023-122Q
Orbit
LEO
Country
Flag of USUS
Related business
Manufacturer
SpaceX/Seattle
Mission
Operational Commercial Communications
Bus & Motor
STARLINK V2M, Unknown motor
Mass
730 kg wet, ~700 kg dry
Launch date (UTC)
2023-08-17 (2 years ago)
Launch vehicle
FALCON 9
Launch site
Air Force Eastern Test Range (AFETR)
Object type
Payload
Rocket body
Debris
Shape & HBR
Box + 2 Pan, 14.5 m
Radar Cross Section
33.884 m², Large (>1 m²)

Expand to show TLE details & history
Last TLE update: 7 hours ago

TLE from 7 hours ago
0 STARLINK-30265
1 57646U 23122Q   25243.50948256  .00001237  00000-0  10666-3 0  9998
2 57646  43.0053  48.0310 0001069 242.6749 117.3984 15.02531114113574
Epoch: 2025-08-31T12:13Z
TLE epoch observation values (Epoch: 2025-08-31T12:13:39.293Z)
Latitude
-0.00005°
Longitude
-115.31117°
Altitude
559.214 km
Speed
7.583 km/s
True Right ascension
03h 12m 07s
True Declination
0° 00' 00"
Sunlit
Object was in daylight at epoch
Visualization orbit readout
Latitude
Unknown
Longitude
Unknown
Altitude
Unknown
Speed
Unknown
Apparent Right ascension
Unknown
Apparent Declination
Unknown
Sunlit
N/A
Visualization observer readout
Local Sidereal Time
10:24:46
Azimuth
Unknown
Elevation
Unknown
Doppler factor
Unknown
Orbital elements
Apogee altitude
561.759 km
Perigee altitude
560.276 km
Semi-major axis
6,939.155 km
Eccentricity
0.00011
Inclination
43.0053°
RAAN
48.031°
Arg. of periapsis
242.6749°
True anomaly
117.40928°
Mean anomaly
117.3984°
Eccentric anomaly
117.40384°
Mean motion
3.75477 °/min
Orbital period
95.88 mins
BSTAR
0.00010666
Loading maneuver chart data...
Computing Atmospheric mass density...
Loading historical data...
Loading historical data...
Loading historical data...
Loading historical data...
Loading historical data...
Loading historical data...
Loading historical data...

Documentation

Showing up to 5 results
|